,,PressureMeas_1m,,PRMeasQMR101_1,,RHStat155_1m_1,,SRMeasQMS101R_1m,,TAStat155_1m_1,,GenWind_1,,GenWind_1,
2017-08-16, 07:00:07,VALID,917.282,VALID,0.0,VALID,95.987,VALID,80.802,VALID,19.044,VALID,129.0,VALID,1.219,
2017-08-16, 07:01:07,VALID,917.279,VALID,0.0,VALID,95.97,VALID,82.454,VALID,19.053,VALID,131.0,VALID,1.326,
2017-08-16, 07:02:07,VALID,917.279,VALID,0.0,VALID,95.851,VALID,84.069,VALID,19.074,VALID,128.0,VALID,1.329,
2017-08-16, 07:03:07,VALID,917.282,VALID,0.0,VALID,95.709,VALID,85.834,VALID,19.097,VALID,130.0,VALID,1.393,
2017-08-16, 07:04:07,VALID,917.288,VALID,0.0,VALID,95.692,VALID,88.525,VALID,19.13,VALID,141.0,VALID,1.039,
2017-08-16, 07:05:07,VALID,917.302,VALID,0.0,VALID,95.472,VALID,92.308,VALID,19.145,VALID,141.0,VALID,1.46,
2017-08-16, 07:06:07,VALID,917.301,VALID,0.0,VALID,95.113,VALID,96.431,VALID,19.152,VALID,144.0,VALID,1.455,
2017-08-16, 07:07:07,VALID,917.323,VALID,0.0,VALID,95.202,VALID,100.173,VALID,19.136,VALID,176.0,VALID,1.305,
2017-08-16, 07:08:07,VALID,917.337,VALID,0.0,VALID,95.07,VALID,103.457,VALID,19.135,VALID,153.0,VALID,1.567,
2017-08-16, 07:09:07,VALID,917.353,VALID,0.0,VALID,94.906,VALID,106.445,VALID,19.154,VALID,139.0,VALID,1.624,
2017-08-16, 07:10:07,VALID,917.359,VALID,0.0,VALID,94.996,VALID,109.113,VALID,19.177,VALID,143.0,VALID,1.246,
2017-08-16, 07:11:07,VALID,917.359,VALID,0.0,VALID,94.869,VALID,111.419,VALID,19.189,VALID,133.0,VALID,0.781,
2017-08-16, 07:12:07,VALID,917.37,VALID,0.0,VALID,95.191,VALID,113.331,VALID,19.214,VALID,134.0,VALID,0.839,
2017-08-16, 07:13:07,VALID,917.375,VALID,0.0,VALID,95.25,VALID,114.906,VALID,19.214,VALID,146.0,VALID,1.018,
2017-08-16, 07:14:07,VALID,917.375,VALID,0.0,VALID,94.999,VALID,116.421,VALID,19.22,VALID,124.0,VALID,1.302,
2017-08-16, 07:15:07,VALID,917.394,VALID,0.0,VALID,95.284,VALID,117.64,VALID,19.252,VALID,128.0,VALID,1.103,
2017-08-16, 07:16:07,VALID,917.409,VALID,0.0,VALID,95.619,VALID,118.43,VALID,19.281,VALID,105.0,VALID,0.97,
2017-08-16, 07:17:07,VALID,917.414,VALID,0.0,VALID,95.581,VALID,118.667,VALID,19.292,VALID,95.0,VALID,1.056,
2017-08-16, 07:18:07,VALID,917.432,VALID,0.0,VALID,95.071,VALID,119.162,VALID,19.288,VALID,108.0,VALID,1.235,
2017-08-16, 07:19:07,VALID,917.44,VALID,0.0,VALID,95.135,VALID,120.077,VALID,19.332,VALID,111.0,VALID,1.004,
2017-08-16, 07:20:07,VALID,917.447,VALID,0.0,VALID,95.346,VALID,121.174,VALID,19.362,VALID,107.0,VALID,1.288,
2017-08-16, 07:21:07,VALID,917.444,VALID,0.0,VALID,94.738,VALID,122.177,VALID,19.362,VALID,103.0,VALID,1.407,
2017-08-16, 07:22:07,VALID,917.451,VALID,0.0,VALID,94.403,VALID,122.827,VALID,19.359,VALID,102.0,VALID,1.186,
2017-08-16, 07:23:07,VALID,917.447,VALID,0.0,VALID,94.909,VALID,122.956,VALID,19.391,VALID,109.0,VALID,1.195,
2017-08-16, 07:24:07,VALID,917.443,VALID,0.0,VALID,93.915,VALID,122.896,VALID,19.391,VALID,95.0,VALID,1.875,
2017-08-16, 07:25:07,VALID,917.433,VALID,0.0,VALID,93.743,VALID,122.876,VALID,19.428,VALID,98.0,VALID,1.849,
2017-08-16, 07:26:07,VALID,917.425,VALID,0.0,VALID,93.583,VALID,122.988,VALID,19.445,VALID,109.0,VALID,1.671,
2017-08-16, 07:27:07,VALID,917.416,VALID,0.0,VALID,93.675,VALID,123.327,VALID,19.46,VALID,106.0,VALID,1.671,
2017-08-16, 07:28:07,VALID,917.389,VALID,0.0,VALID,92.835,VALID,123.863,VALID,19.467,VALID,100.0,VALID,1.875,
2017-08-16, 07:29:07,VALID,917.374,VALID,0.0,VALID,93.01,VALID,124.823,VALID,19.479,VALID,109.0,VALID,1.879,
2017-08-16, 07:30:07,VALID,917.37,VALID,0.0,VALID,93.28,VALID,125.969,VALID,19.487,VALID,112.0,VALID,1.792,
2017-08-16, 07:31:07,VALID,917.356,VALID,0.0,VALID,93.281,VALID,127.34,VALID,19.506,VALID,122.0,VALID,1.522,
2017-08-16, 07:32:07,VALID,917.337,VALID,0.0,VALID,93.315,VALID,128.809,VALID,19.533,VALID,113.0,VALID,1.664,
2017-08-16, 07:33:07,VALID,917.331,VALID,0.0,VALID,93.413,VALID,130.689,VALID,19.54,VALID,104.0,VALID,1.587,
2017-08-16, 07:34:07,VALID,917.329,VALID,0.0,VALID,93.448,VALID,132.985,VALID,19.545,VALID,108.0,VALID,1.5,
2017-08-16, 07:35:07,VALID,917.354,VALID,0.0,VALID,93.982,VALID,136.051,VALID,19.601,VALID,106.0,VALID,0.936,
2017-08-16, 07:36:07,VALID,917.376,VALID,0.0,VALID,94.29,VALID,139.725,VALID,19.641,VALID,121.0,VALID,0.655,
2017-08-16, 07:37:07,VALID,917.408,VALID,0.0,VALID,93.551,VALID,143.599,VALID,19.623,VALID,137.0,VALID,1.333,
2017-08-16, 07:38:07,VALID,917.444,VALID,0.0,VALID,92.778,VALID,147.557,VALID,19.601,VALID,126.0,VALID,0.905,
2017-08-16, 07:39:07,VALID,917.467,VALID,0.0,VALID,93.691,VALID,151.437,VALID,19.627,VALID,75.0,VALID,0.389,
2017-08-16, 07:40:07,VALID,917.513,VALID,0.0,VALID,94.794,VALID,154.555,VALID,19.691,VALID,40.0,VALID,0.1,
2017-08-16, 07:41:07,VALID,917.52,VALID,0.0,VALID,94.786,VALID,157.135,VALID,19.735,VALID,65.0,VALID,0.194,
2017-08-16, 07:42:07,VALID,917.543,VALID,0.0,VALID,94.515,VALID,159.785,VALID,19.761,VALID,157.0,VALID,0.227,
2017-08-16, 07:43:07,VALID,917.547,VALID,0.0,VALID,93.593,VALID,163.444,VALID,19.762,VALID,182.0,VALID,0.232,
2017-08-16, 07:44:07,VALID,917.556,VALID,0.0,VALID,93.664,VALID,165.471,VALID,19.772,VALID,153.0,VALID,0.098,
2017-08-16, 07:45:07,VALID,917.539,VALID,0.0,VALID,93.62,VALID,163.498,VALID,19.79,VALID,138.0,VALID,0.198,
2017-08-16, 07:46:07,VALID,917.527,VALID,0.0,VALID,93.207,VALID,163.728,VALID,19.779,VALID,140.0,VALID,0.763,
2017-08-16, 07:47:07,VALID,917.513,VALID,0.0,VALID,92.926,VALID,164.9,VALID,19.787,VALID,115.0,VALID,1.247,
2017-08-16, 07:48:07,VALID,917.509,VALID,0.0,VALID,92.907,VALID,166.789,VALID,19.813,VALID,126.0,VALID,1.343,
2017-08-16, 07:49:07,VALID,917.501,VALID,0.0,VALID,93.079,VALID,169.061,VALID,19.834,VALID,129.0,VALID,1.526,
2017-08-16, 07:50:07,VALID,917.482,VALID,0.0,VALID,92.371,VALID,171.801,VALID,19.873,VALID,112.0,VALID,1.844,
2017-08-16, 07:51:07,VALID,917.462,VALID,0.0,VALID,92.351,VALID,175.032,VALID,19.948,VALID,120.0,VALID,2.065,
2017-08-16, 07:52:07,VALID,917.455,VALID,0.0,VALID,91.984,VALID,178.329,VALID,20.01,VALID,110.0,VALID,2.023,
2017-08-16, 07:53:07,VALID,917.442,VALID,0.0,VALID,92.019,VALID,180.892,VALID,20.05,VALID,114.0,VALID,2.223,
2017-08-16, 07:54:07,VALID,917.433,VALID,0.0,VALID,92.317,VALID,182.051,VALID,20.121,VALID,115.0,VALID,1.332,
2017-08-16, 07:55:07,VALID,917.428,VALID,0.0,VALID,93.137,VALID,181.708,VALID,20.163,VALID,106.0,VALID,1.371,
2017-08-16, 07:56:07,VALID,917.411,VALID,0.0,VALID,93.065,VALID,180.305,VALID,20.198,VALID,114.0,VALID,1.681,
2017-08-16, 07:57:07,VALID,917.416,VALID,0.0,VALID,92.06,VALID,177.674,VALID,20.213,VALID,122.0,VALID,1.592,
2017-08-16, 07:58:07,VALID,917.397,VALID,0.0,VALID,91.891,VALID,173.909,VALID,20.201,VALID,130.0,VALID,1.951,
2017-08-16, 07:59:07,VALID,917.392,VALID,0.0,VALID,91.644,VALID,169.428,VALID,20.171,VALID,129.0,VALID,1.623,
2017-08-16, 08:00:07,VALID,917.382,VALID,0.0,VALID,92.018,VALID,165.163,VALID,20.152,VALID,137.0,VALID,1.6,
2017-08-16, 08:01:07,VALID,917.389,VALID,0.0,VALID,91.42,VALID,162.013,VALID,20.115,VALID,132.0,VALID,1.703,
2017-08-16, 08:02:07,VALID,917.392,VALID,0.0,VALID,92.099,VALID,159.566,VALID,20.102,VALID,131.0,VALID,1.799,
2017-08-16, 08:03:07,VALID,917.396,VALID,0.0,VALID,91.899,VALID,156.567,VALID,20.095,VALID,130.0,VALID,1.988,
2017-08-16, 08:04:07,VALID,917.4,VALID,0.0,VALID,91.05,VALID,151.788,VALID,20.088,VALID,126.0,VALID,2.036,
2017-08-16, 08:05:07,VALID,917.389,VALID,0.0,VALID,91.026,VALID,145.503,VALID,20.109,VALID,124.0,VALID,2.202,
2017-08-16, 08:06:07,VALID,917.383,VALID,0.0,VALID,90.564,VALID,138.571,VALID,20.126,VALID,124.0,VALID,1.548,
2017-08-16, 08:07:07,VALID,917.369,VALID,0.0,VALID,91.409,VALID,132.365,VALID,20.135,VALID,139.0,VALID,2.011,
2017-08-16, 08:08:07,VALID,917.363,VALID,0.0,VALID,90.912,VALID,127.322,VALID,20.054,VALID,135.0,VALID,1.963,
2017-08-16, 08:09:07,VALID,917.353,VALID,0.0,VALID,91.664,VALID,123.591,VALID,20.017,VALID,136.0,VALID,1.887,
2017-08-16, 08:10:07,VALID,917.349,VALID,0.0,VALID,91.12,VALID,122.057,VALID,20.009,VALID,143.0,VALID,2.041,
2017-08-16, 08:11:07,VALID,917.332,VALID,0.0,VALID,91.814,VALID,124.368,VALID,20.013,VALID,129.0,VALID,1.405,
2017-08-16, 08:12:07,VALID,917.344,VALID,0.0,VALID,91.439,VALID,137.854,VALID,20.041,VALID,130.0,VALID,1.658,
2017-08-16, 08:13:07,VALID,917.347,VALID,0.0,VALID,91.622,VALID,270.714,VALID,20.094,VALID,131.0,VALID,1.414,
2017-08-16, 08:14:07,VALID,917.352,VALID,0.0,VALID,91.456,VALID,209.383,VALID,20.161,VALID,124.0,VALID,1.835,
2017-08-16, 08:15:07,VALID,917.375,VALID,0.0,VALID,91.149,VALID,205.663,VALID,20.258,VALID,123.0,VALID,1.737,
2017-08-16, 08:16:07,VALID,917.366,VALID,0.0,VALID,90.875,VALID,195.993,VALID,20.339,VALID,121.0,VALID,2.012,
2017-08-16, 08:17:07,VALID,917.369,VALID,0.0,VALID,89.84,VALID,191.508,VALID,20.356,VALID,119.0,VALID,2.498,
2017-08-16, 08:18:07,VALID,917.378,VALID,0.0,VALID,89.789,VALID,196.462,VALID,20.38,VALID,117.0,VALID,1.795,
2017-08-16, 08:19:07,VALID,917.357,VALID,0.0,VALID,90.297,VALID,209.738,VALID,20.444,VALID,103.0,VALID,1.705,
2017-08-16, 08:20:07,VALID,917.356,VALID,0.0,VALID,90.387,VALID,245.393,VALID,20.501,VALID,95.0,VALID,1.52,
2017-08-16, 08:21:07,VALID,917.359,VALID,0.0,VALID,90.992,VALID,246.945,VALID,20.566,VALID,103.0,VALID,1.269,
2017-08-16, 08:22:07,VALID,917.362,VALID,0.0,VALID,90.229,VALID,242.768,VALID,20.641,VALID,121.0,VALID,1.807,
2017-08-16, 08:23:07,VALID,917.371,VALID,0.0,VALID,89.74,VALID,244.638,VALID,20.716,VALID,116.0,VALID,1.327,
2017-08-16, 08:24:07,VALID,917.379,VALID,0.0,VALID,89.971,VALID,251.285,VALID,20.769,VALID,116.0,VALID,1.594,
2017-08-16, 08:25:07,VALID,917.383,VALID,0.0,VALID,89.818,VALID,321.996,VALID,20.828,VALID,125.0,VALID,1.213,
2017-08-16, 08:26:07,VALID,917.394,VALID,0.0,VALID,88.99,VALID,391.654,VALID,20.908,VALID,139.0,VALID,1.808,
2017-08-16, 08:27:07,VALID,917.386,VALID,0.0,VALID,88.541,VALID,379.07,VALID,20.95,VALID,131.0,VALID,1.514,
2017-08-16, 08:28:07,VALID,917.397,VALID,0.0,VALID,89.991,VALID,462.422,VALID,21.049,VALID,109.0,VALID,1.191,
2017-08-16, 08:29:07,VALID,917.381,VALID,0.0,VALID,88.112,VALID,531.316,VALID,21.194,VALID,124.0,VALID,1.479,
2017-08-16, 08:30:07,VALID,917.394,VALID,0.0,VALID,88.49,VALID,534.972,VALID,21.36,VALID,137.0,VALID,1.327,
2017-08-16, 08:31:07,VALID,917.372,VALID,0.0,VALID,87.016,VALID,531.466,VALID,21.474,VALID,132.0,VALID,1.285,
2017-08-16, 08:32:07,VALID,917.359,VALID,0.0,VALID,88.148,VALID,526.436,VALID,21.635,VALID,111.0,VALID,1.161,
2017-08-16, 08:33:07,VALID,917.372,VALID,0.0,VALID,86.689,VALID,520.204,VALID,21.825,VALID,132.0,VALID,1.261,
2017-08-16, 08:34:07,VALID,917.364,VALID,0.0,VALID,87.069,VALID,519.223,VALID,21.964,VALID,113.0,VALID,1.74,
2017-08-16, 08:35:07,VALID,917.366,VALID,0.0,VALID,83.015,VALID,520.367,VALID,21.992,VALID,95.0,VALID,2.336,
2017-08-16, 08:36:07,VALID,917.375,VALID,0.0,VALID,81.492,VALID,517.215,VALID,21.895,VALID,101.0,VALID,2.203,
2017-08-16, 08:37:07,VALID,917.392,VALID,0.0,VALID,84.556,VALID,514.088,VALID,21.895,VALID,98.0,VALID,1.275,
2017-08-16, 08:38:07,VALID,917.394,VALID,0.0,VALID,82.806,VALID,514.518,VALID,22.038,VALID,112.0,VALID,1.688,
2017-08-16, 08:39:07,VALID,917.384,VALID,0.0,VALID,82.614,VALID,506.609,VALID,22.17,VALID,126.0,VALID,1.014,
2017-08-16, 08:40:07,VALID,917.385,VALID,0.0,VALID,82.198,VALID,488.371,VALID,22.259,VALID,140.0,VALID,1.586,
2017-08-16, 08:41:07,VALID,917.378,VALID,0.0,VALID,82.576,VALID,458.305,VALID,22.283,VALID,147.0,VALID,1.646,
2017-08-16, 08:42:07,VALID,917.373,VALID,0.0,VALID,80.849,VALID,442.345,VALID,22.221,VALID,157.0,VALID,1.77,
2017-08-16, 08:43:07,VALID,917.366,VALID,0.0,VALID,81.4,VALID,448.613,VALID,22.136,VALID,149.0,VALID,2.162,
2017-08-16, 08:44:07,VALID,917.342,VALID,0.0,VALID,80.798,VALID,458.145,VALID,21.988,VALID,145.0,VALID,2.24,
2017-08-16, 08:45:07,VALID,917.336,VALID,0.0,VALID,82.377,VALID,517.963,VALID,21.929,VALID,147.0,VALID,2.315,
2017-08-16, 08:46:07,VALID,917.329,VALID,0.0,VALID,82.0,VALID,538.371,VALID,21.944,VALID,147.0,VALID,2.435,
2017-08-16, 08:47:07,VALID,917.333,VALID,0.0,VALID,81.914,VALID,545.428,VALID,22.043,VALID,152.0,VALID,2.165,
2017-08-16, 08:48:07,VALID,917.341,VALID,0.0,VALID,81.773,VALID,555.123,VALID,22.21,VALID,153.0,VALID,2.289,
2017-08-16, 08:49:07,VALID,917.343,VALID,0.0,VALID,81.182,VALID,540.565,VALID,22.249,VALID,149.0,VALID,2.051,
2017-08-16, 08:50:07,VALID,917.35,VALID,0.0,VALID,82.412,VALID,510.913,VALID,22.387,VALID,152.0,VALID,2.224,
2017-08-16, 08:51:07,VALID,917.355,VALID,0.0,VALID,80.689,VALID,532.288,VALID,22.426,VALID,152.0,VALID,2.512,
2017-08-16, 08:52:07,VALID,917.371,VALID,0.0,VALID,81.802,VALID,559.826,VALID,22.467,VALID,162.0,VALID,1.868,
2017-08-16, 08:53:07,VALID,917.369,VALID,0.0,VALID,81.069,VALID,571.82,VALID,22.536,VALID,155.0,VALID,2.118,
2017-08-16, 08:54:07,VALID,917.374,VALID,0.0,VALID,80.301,VALID,579.942,VALID,22.58,VALID,163.0,VALID,2.228,
2017-08-16, 08:55:07,VALID,917.382,VALID,0.0,VALID,79.753,VALID,587.11,VALID,22.635,VALID,146.0,VALID,2.297,
2017-08-16, 08:56:07,VALID,917.378,VALID,0.0,VALID,77.817,VALID,581.918,VALID,22.697,VALID,148.0,VALID,2.795,
2017-08-16, 08:57:07,VALID,917.364,VALID,0.0,VALID,78.476,VALID,588.65,VALID,22.708,VALID,145.0,VALID,2.199,
2017-08-16, 08:58:07,VALID,917.382,VALID,0.0,VALID,79.004,VALID,550.009,VALID,22.816,VALID,150.0,VALID,2.434,
2017-08-16, 08:59:07,VALID,917.38,VALID,0.0,VALID,78.561,VALID,477.697,VALID,22.859,VALID,152.0,VALID,2.412,
2017-08-16, 09:00:07,VALID,917.381,VALID,0.0,VALID,78.67,VALID,362.618,VALID,22.855,VALID,151.0,VALID,2.071,
2017-08-16, 09:01:07,VALID,917.367,VALID,0.0,VALID,78.059,VALID,289.536,VALID,22.871,VALID,163.0,VALID,2.575,
2017-08-16, 09:02:07,VALID,917.369,VALID,0.0,VALID,78.349,VALID,244.974,VALID,22.873,VALID,156.0,VALID,2.402,
2017-08-16, 09:03:06,VALID,917.357,VALID,0.0,VALID,77.161,VALID,212.966,VALID,22.809,VALID,145.0,VALID,2.544,
2017-08-16, 09:04:06,VALID,917.342,VALID,0.0,VALID,78.155,VALID,193.78,VALID,22.724,VALID,150.0,VALID,2.555,
2017-08-16, 09:05:06,VALID,917.348,VALID,0.0,VALID,77.552,VALID,185.826,VALID,22.626,VALID,145.0,VALID,3.222,
2017-08-16, 09:06:06,VALID,917.336,VALID,0.0,VALID,78.003,VALID,185.973,VALID,22.544,VALID,141.0,VALID,2.584,
2017-08-16, 09:07:06,VALID,917.346,VALID,0.0,VALID,78.571,VALID,192.153,VALID,22.483,VALID,134.0,VALID,2.491,
2017-08-16, 09:08:06,VALID,917.35,VALID,0.0,VALID,79.237,VALID,203.565,VALID,22.497,VALID,124.0,VALID,2.496,
2017-08-16, 09:09:06,VALID,917.358,VALID,0.0,VALID,80.058,VALID,218.41,VALID,22.505,VALID,141.0,VALID,2.186,
2017-08-16, 09:10:06,VALID,917.367,VALID,0.0,VALID,80.456,VALID,233.427,VALID,22.485,VALID,128.0,VALID,2.062,
2017-08-16, 09:11:06,VALID,917.373,VALID,0.0,VALID,81.019,VALID,246.232,VALID,22.524,VALID,131.0,VALID,1.659,
2017-08-16, 09:12:06,VALID,917.374,VALID,0.0,VALID,79.788,VALID,256.244,VALID,22.556,VALID,128.0,VALID,1.986,
2017-08-16, 09:13:06,VALID,917.366,VALID,0.0,VALID,80.329,VALID,262.055,VALID,22.563,VALID,133.0,VALID,2.114,
2017-08-16, 09:14:06,VALID,917.377,VALID,0.0,VALID,80.862,VALID,264.331,VALID,22.572,VALID,121.0,VALID,2.002,
2017-08-16, 09:15:06,VALID,917.383,VALID,0.0,VALID,80.858,VALID,262.997,VALID,22.61,VALID,125.0,VALID,1.984,
2017-08-16, 09:16:06,VALID,917.374,VALID,0.0,VALID,80.017,VALID,259.376,VALID,22.624,VALID,136.0,VALID,1.923,
2017-08-16, 09:17:06,VALID,917.37,VALID,0.0,VALID,79.441,VALID,255.441,VALID,22.66,VALID,138.0,VALID,1.794,
2017-08-16, 09:18:06,VALID,917.351,VALID,0.0,VALID,79.526,VALID,252.51,VALID,22.671,VALID,146.0,VALID,2.039,
2017-08-16, 09:19:06,VALID,917.363,VALID,0.0,VALID,78.79,VALID,251.805,VALID,22.633,VALID,140.0,VALID,2.112,
2017-08-16, 09:20:06,VALID,917.337,VALID,0.0,VALID,79.65,VALID,252.985,VALID,22.634,VALID,140.0,VALID,1.981,
2017-08-16, 09:21:06,VALID,917.347,VALID,0.0,VALID,79.164,VALID,257.095,VALID,22.676,VALID,138.0,VALID,2.273,
2017-08-16, 09:22:06,VALID,917.346,VALID,0.0,VALID,77.597,VALID,264.066,VALID,22.688,VALID,138.0,VALID,2.468,
2017-08-16, 09:23:06,VALID,917.341,VALID,0.0,VALID,77.519,VALID,272.463,VALID,22.671,VALID,137.0,VALID,2.026,
2017-08-16, 09:24:06,VALID,917.332,VALID,0.0,VALID,78.464,VALID,286.711,VALID,22.74,VALID,141.0,VALID,1.686,
2017-08-16, 09:25:06,VALID,917.32,VALID,0.0,VALID,76.907,VALID,317.551,VALID,22.799,VALID,141.0,VALID,2.625,
2017-08-16, 09:26:06,VALID,917.3,VALID,0.0,VALID,78.177,VALID,397.431,VALID,22.817,VALID,140.0,VALID,2.097,
2017-08-16, 09:27:06,VALID,917.289,VALID,0.0,VALID,78.386,VALID,413.431,VALID,22.861,VALID,144.0,VALID,2.069,
2017-08-16, 09:28:06,VALID,917.274,VALID,0.0,VALID,78.466,VALID,351.009,VALID,22.863,VALID,142.0,VALID,2.138,
2017-08-16, 09:29:06,VALID,917.26,VALID,0.0,VALID,80.664,VALID,345.579,VALID,22.937,VALID,132.0,VALID,1.811,
2017-08-16, 09:30:06,VALID,917.246,VALID,0.0,VALID,79.294,VALID,336.29,VALID,22.993,VALID,130.0,VALID,1.98,
2017-08-16, 09:31:06,VALID,917.236,VALID,0.0,VALID,79.592,VALID,330.558,VALID,23.017,VALID,132.0,VALID,1.939,
2017-08-16, 09:32:06,VALID,917.213,VALID,0.0,VALID,78.569,VALID,331.749,VALID,23.005,VALID,138.0,VALID,2.329,
2017-08-16, 09:33:06,VALID,917.212,VALID,0.0,VALID,79.217,VALID,334.789,VALID,22.975,VALID,134.0,VALID,1.966,
2017-08-16, 09:34:06,VALID,917.189,VALID,0.0,VALID,78.375,VALID,340.972,VALID,22.978,VALID,140.0,VALID,2.479,
2017-08-16, 09:35:06,VALID,917.187,VALID,0.0,VALID,78.359,VALID,352.127,VALID,23.007,VALID,131.0,VALID,2.245,
2017-08-16, 09:36:06,VALID,917.183,VALID,0.0,VALID,77.599,VALID,368.25,VALID,23.053,VALID,117.0,VALID,2.223,
2017-08-16, 09:37:06,VALID,917.198,VALID,0.0,VALID,78.722,VALID,382.409,VALID,23.123,VALID,124.0,VALID,1.798,
2017-08-16, 09:38:06,VALID,917.192,VALID,0.0,VALID,78.179,VALID,400.056,VALID,23.14,VALID,112.0,VALID,2.199,
2017-08-16, 09:39:06,VALID,917.197,VALID,0.0,VALID,76.821,VALID,431.978,VALID,23.134,VALID,113.0,VALID,2.184,
2017-08-16, 09:40:06,VALID,917.196,VALID,0.0,VALID,79.725,VALID,487.596,VALID,23.184,VALID,122.0,VALID,1.361,
2017-08-16, 09:41:06,VALID,917.195,VALID,0.0,VALID,77.562,VALID,545.323,VALID,23.351,VALID,119.0,VALID,2.298,
2017-08-16, 09:42:06,VALID,917.198,VALID,0.0,VALID,78.376,VALID,537.242,VALID,23.353,VALID,113.0,VALID,2.427,
2017-08-16, 09:43:06,VALID,917.196,VALID,0.0,VALID,77.537,VALID,507.199,VALID,23.374,VALID,122.0,VALID,2.247,
2017-08-16, 09:44:06,VALID,917.188,VALID,0.0,VALID,77.082,VALID,495.923,VALID,23.468,VALID,126.0,VALID,1.712,
2017-08-16, 09:45:06,VALID,917.179,VALID,0.0,VALID,76.954,VALID,498.114,VALID,23.541,VALID,145.0,VALID,2.715,
2017-08-16, 09:46:06,VALID,917.157,VALID,0.0,VALID,76.886,VALID,530.405,VALID,23.529,VALID,126.0,VALID,2.197,
2017-08-16, 09:47:06,VALID,917.147,VALID,0.0,VALID,78.584,VALID,537.318,VALID,23.647,VALID,131.0,VALID,2.373,
2017-08-16, 09:48:06,VALID,917.122,VALID,0.0,VALID,76.811,VALID,513.616,VALID,23.818,VALID,121.0,VALID,3.141,
2017-08-16, 09:49:06,VALID,917.079,VALID,0.0,VALID,74.441,VALID,508.376,VALID,23.855,VALID,127.0,VALID,2.87,
2017-08-16, 09:50:06,VALID,917.067,VALID,0.0,VALID,75.874,VALID,534.634,VALID,23.867,VALID,123.0,VALID,2.265,
2017-08-16, 09:51:06,VALID,917.056,VALID,0.0,VALID,77.706,VALID,542.91,VALID,23.982,VALID,118.0,VALID,2.4,
2017-08-16, 09:52:06,VALID,917.031,VALID,0.0,VALID,73.525,VALID,506.264,VALID,24.039,VALID,114.0,VALID,2.654,
2017-08-16, 09:53:06,VALID,917.027,VALID,0.0,VALID,74.57,VALID,490.389,VALID,23.972,VALID,117.0,VALID,3.102,
2017-08-16, 09:54:06,VALID,917.011,VALID,0.0,VALID,75.336,VALID,499.019,VALID,23.996,VALID,114.0,VALID,2.304,
2017-08-16, 09:55:06,VALID,916.993,VALID,0.0,VALID,72.394,VALID,586.208,VALID,23.997,VALID,109.0,VALID,2.827,
2017-08-16, 09:56:06,VALID,917.0,VALID,0.0,VALID,73.1,VALID,604.856,VALID,23.873,VALID,115.0,VALID,2.932,
2017-08-16, 09:57:06,VALID,916.999,VALID,0.0,VALID,72.722,VALID,563.364,VALID,23.817,VALID,115.0,VALID,3.289,
2017-08-16, 09:58:06,VALID,917.002,VALID,0.0,VALID,73.562,VALID,507.116,VALID,23.813,VALID,107.0,VALID,2.479,
2017-08-16, 09:59:06,VALID,916.99,VALID,0.0,VALID,74.376,VALID,527.507,VALID,23.857,VALID,121.0,VALID,2.351,
2017-08-16, 10:00:06,VALID,916.989,VALID,0.0,VALID,72.574,VALID,577.951,VALID,23.981,VALID,110.0,VALID,3.024,
2017-08-16, 10:01:06,VALID,916.992,VALID,0.0,VALID,74.256,VALID,530.55,VALID,24.074,VALID,114.0,VALID,2.527,
2017-08-16, 10:02:06,VALID,916.991,VALID,0.0,VALID,71.952,VALID,542.876,VALID,24.217,VALID,113.0,VALID,1.714,
2017-08-16, 10:03:06,VALID,916.99,VALID,0.0,VALID,71.797,VALID,548.127,VALID,24.335,VALID,124.0,VALID,1.842,
2017-08-16, 10:04:06,VALID,916.99,VALID,0.0,VALID,72.463,VALID,550.838,VALID,24.484,VALID,127.0,VALID,2.01,
2017-08-16, 10:05:06,VALID,917.001,VALID,0.0,VALID,68.957,VALID,556.17,VALID,24.566,VALID,133.0,VALID,2.025,
2017-08-16, 10:06:06,VALID,916.996,VALID,0.0,VALID,70.046,VALID,522.404,VALID,24.531,VALID,143.0,VALID,1.573,
2017-08-16, 10:07:06,VALID,916.997,VALID,0.0,VALID,70.434,VALID,521.849,VALID,24.562,VALID,119.0,VALID,1.832,
2017-08-16, 10:08:06,VALID,916.991,VALID,0.0,VALID,72.316,VALID,514.678,VALID,24.699,VALID,95.0,VALID,1.523,
2017-08-16, 10:09:06,VALID,916.964,VALID,0.0,VALID,70.102,VALID,483.503,VALID,24.726,VALID,107.0,VALID,1.778,
2017-08-16, 10:10:06,VALID,916.971,VALID,0.0,VALID,73.099,VALID,478.805,VALID,24.732,VALID,100.0,VALID,1.786,
2017-08-16, 10:11:06,VALID,916.964,VALID,0.0,VALID,68.231,VALID,477.427,VALID,24.752,VALID,127.0,VALID,2.232,
2017-08-16, 10:12:06,VALID,916.955,VALID,0.0,VALID,68.287,VALID,476.229,VALID,24.786,VALID,130.0,VALID,2.333,
2017-08-16, 10:13:06,VALID,916.947,VALID,0.0,VALID,67.342,VALID,469.73,VALID,24.754,VALID,119.0,VALID,2.485,
2017-08-16, 10:14:06,VALID,916.948,VALID,0.0,VALID,68.939,VALID,467.759,VALID,24.703,VALID,129.0,VALID,2.121,
2017-08-16, 10:15:06,VALID,916.931,VALID,0.0,VALID,67.901,VALID,468.558,VALID,24.755,VALID,121.0,VALID,2.064,
2017-08-16, 10:16:06,VALID,916.935,VALID,0.0,VALID,70.224,VALID,469.855,VALID,24.766,VALID,114.0,VALID,1.798,
2017-08-16, 10:17:06,VALID,916.921,VALID,0.0,VALID,70.032,VALID,470.644,VALID,24.798,VALID,130.0,VALID,1.598,
2017-08-16, 10:18:06,VALID,916.918,VALID,0.0,VALID,70.247,VALID,471.272,VALID,24.855,VALID,127.0,VALID,1.799,
2017-08-16, 10:19:06,VALID,916.906,VALID,0.0,VALID,69.939,VALID,471.826,VALID,24.929,VALID,120.0,VALID,1.186,
2017-08-16, 10:20:06,VALID,916.884,VALID,0.0,VALID,70.397,VALID,472.864,VALID,24.992,VALID,122.0,VALID,1.839,
2017-08-16, 10:21:06,VALID,916.885,VALID,0.0,VALID,69.128,VALID,474.221,VALID,25.018,VALID,128.0,VALID,2.594,
2017-08-16, 10:22:06,VALID,916.863,VALID,0.0,VALID,67.998,VALID,476.391,VALID,24.926,VALID,105.0,VALID,2.365,
2017-08-16, 10:23:06,VALID,916.861,VALID,0.0,VALID,68.087,VALID,480.166,VALID,24.793,VALID,117.0,VALID,2.114,
2017-08-16, 10:24:06,VALID,916.854,VALID,0.0,VALID,69.929,VALID,484.061,VALID,24.795,VALID,123.0,VALID,2.313,
2017-08-16, 10:25:06,VALID,916.852,VALID,0.0,VALID,67.453,VALID,493.723,VALID,24.794,VALID,131.0,VALID,2.653,
2017-08-16, 10:26:06,VALID,916.84,VALID,0.0,VALID,68.762,VALID,502.943,VALID,24.729,VALID,103.0,VALID,2.376,
2017-08-16, 10:27:06,VALID,916.845,VALID,0.0,VALID,69.005,VALID,509.811,VALID,24.646,VALID,115.0,VALID,2.029,
2017-08-16, 10:28:06,VALID,916.842,VALID,0.0,VALID,68.366,VALID,515.587,VALID,24.656,VALID,111.0,VALID,2.668,
2017-08-16, 10:29:06,VALID,916.815,VALID,0.0,VALID,68.12,VALID,516.014,VALID,24.584,VALID,113.0,VALID,2.159,
2017-08-16, 10:30:06,VALID,916.8,VALID,0.0,VALID,69.748,VALID,516.312,VALID,24.631,VALID,112.0,VALID,2.203,
2017-08-16, 10:31:06,VALID,916.78,VALID,0.0,VALID,68.922,VALID,518.569,VALID,24.681,VALID,129.0,VALID,2.655,
2017-08-16, 10:32:06,VALID,916.753,VALID,0.0,VALID,67.935,VALID,516.592,VALID,24.726,VALID,129.0,VALID,2.342,
2017-08-16, 10:33:06,VALID,916.724,VALID,0.0,VALID,68.659,VALID,516.581,VALID,24.769,VALID,96.0,VALID,1.911,
2017-08-16, 10:34:06,VALID,916.703,VALID,0.0,VALID,69.393,VALID,518.02,VALID,24.72,VALID,104.0,VALID,1.84,
2017-08-16, 10:35:06,VALID,916.696,VALID,0.0,VALID,68.924,VALID,520.807,VALID,24.731,VALID,108.0,VALID,2.862,